Time,TemperatureF,DewpointF,PressureIn,WindDirection,WindDirectionDegrees,WindSpeedMPH,WindSpeedGustMPH,Humidity,HourlyPrecipIn,Conditions,Clouds,dailyrainin,SoftwareType,DateUTC
2013-10-12 00:01:00,60.3,24.3,29.65,East,90,1.1,1.6,25,0.00,RA,,0.00,WeatherDisplay:10.37,2013-10-12 04:01:00,
2013-10-12 00:02:00,60.4,24.4,29.65,East,90,1.1,1.6,25,0.00,RA,,0.00,WeatherDisplay:10.37,2013-10-12 04:02:00,
2013-10-12 00:07:00,60.4,24.4,29.65,East,90,1.1,1.6,25,0.00,RA,,0.00,WeatherDisplay:10.37,2013-10-12 04:07:00,
2013-10-12 00:12:00,60.3,24.3,29.65,East,90,1.1,1.6,25,0.00,CLR,,0.00,WeatherDisplay:10.37,2013-10-12 04:12:00,
2013-10-12 00:17:00,60.3,24.3,29.65,East,90,1.1,1.6,25,0.00,CLR,,0.00,WeatherDisplay:10.37,2013-10-12 04:17:00,
2013-10-12 00:22:00,60.1,24.1,29.65,East,90,1.1,1.6,25,0.00,CLR,,0.00,WeatherDisplay:10.37,2013-10-12 04:22:00,
2013-10-12 00:27:00,60.1,24.1,29.65,East,90,1.1,1.6,25,0.00,CLR,,0.00,WeatherDisplay:10.37,2013-10-12 04:27:00,
2013-10-12 00:32:00,60.1,24.1,29.65,East,90,1.1,1.6,25,0.00,CLR,,0.00,WeatherDisplay:10.37,2013-10-12 04:32:00,
2013-10-12 00:37:00,59.9,23.9,29.62,East,90,1.1,1.6,25,0.00,CLR,,0.00,WeatherDisplay:10.37,2013-10-12 04:37:00,
2013-10-12 00:42:00,59.5,24.6,29.62,East,90,1.1,1.6,26,0.00,CLR,,0.00,WeatherDisplay:10.37,2013-10-12 04:42:00,
2013-10-12 00:47:00,59.5,25.5,29.62,East,90,1.1,1.6,27,0.00,CLR,,0.00,WeatherDisplay:10.37,2013-10-12 04:47:00,
2013-10-12 00:52:00,59.5,26.4,29.62,East,90,1.1,1.6,28,0.00,CLR,,0.00,WeatherDisplay:10.37,2013-10-12 04:52:00,
2013-10-12 00:57:00,59.5,26.4,29.62,East,90,1.1,1.6,28,0.00,CLR,,0.00,WeatherDisplay:10.37,2013-10-12 04:57:00,
2013-10-12 01:02:00,59.5,26.4,29.62,East,90,1.1,1.6,28,0.00,CLR,,0.00,WeatherDisplay:10.37,2013-10-12 05:02:00,
2013-10-12 01:07:00,59.5,26.4,29.65,East,90,1.1,1.6,28,0.00,CLR,,0.00,WeatherDisplay:10.37,2013-10-12 05:07:00,
2013-10-12 01:12:00,59.5,27.2,29.65,East,90,1.1,1.6,29,0.00,CLR,,0.00,WeatherDisplay:10.37,2013-10-12 05:12:00,
2013-10-12 01:17:00,59.5,28.0,29.65,East,90,1.1,1.6,30,0.00,CLR,,0.00,WeatherDisplay:10.37,2013-10-12 05:17:00,
2013-10-12 01:22:00,59.5,28.0,29.62,East,90,1.1,1.6,30,0.00,CLR,,0.00,WeatherDisplay:10.37,2013-10-12 05:22:00,
2013-10-12 01:27:00,59.5,28.0,29.62,East,90,1.1,1.6,30,0.00,CLR,,0.00,WeatherDisplay:10.37,2013-10-12 05:27:00,
2013-10-12 01:32:00,59.5,29.6,29.62,East,90,1.1,1.6,32,0.00,CLR,,0.00,WeatherDisplay:10.37,2013-10-12 05:32:00,
2013-10-12 01:37:00,59.4,30.2,29.65,East,90,1.1,1.6,33,0.00,CLR,,0.00,WeatherDisplay:10.37,2013-10-12 05:37:00,
2013-10-12 01:42:00,59.4,30.2,29.65,East,90,1.1,1.6,33,0.00,CLR,,0.00,WeatherDisplay:10.37,2013-10-12 05:42:00,
2013-10-12 01:47:00,59.5,30.4,29.65,East,90,1.1,1.6,33,0.00,CLR,,0.00,WeatherDisplay:10.37,2013-10-12 05:47:00,
2013-10-12 01:52:00,59.5,29.6,29.65,East,90,1.1,1.6,32,0.00,CLR,,0.00,WeatherDisplay:10.37,2013-10-12 05:52:00,
2013-10-12 01:57:00,59.5,30.4,29.65,East,90,1.1,1.6,33,0.00,CLR,,0.00,WeatherDisplay:10.37,2013-10-12 05:57:00,
2013-10-12 02:02:00,59.5,29.6,29.65,East,90,1.1,1.6,32,0.00,CLR,,0.00,WeatherDisplay:10.37,2013-10-12 06:02:00,
2013-10-12 02:07:00,59.5,29.6,29.65,NNW,338,0.0,0.0,32,0.00,CLR,,0.00,WeatherDisplay:10.37,2013-10-12 06:07:00,
2013-10-12 02:12:00,59.5,28.8,29.65,NNW,338,0.0,0.0,31,0.00,CLR,,0.00,WeatherDisplay:10.37,2013-10-12 06:12:00,
2013-10-12 02:17:00,59.5,29.6,29.65,NNW,338,0.0,0.0,32,0.00,CLR,,0.00,WeatherDisplay:10.37,2013-10-12 06:17:00,
2013-10-12 02:22:00,59.4,29.5,29.65,North,0,0.0,0.0,32,0.00,CLR,,0.00,WeatherDisplay:10.37,2013-10-12 06:22:00,
2013-10-12 02:27:00,59.4,30.2,29.65,North,0,0.0,0.0,33,0.00,CLR,,0.00,WeatherDisplay:10.37,2013-10-12 06:27:00,
2013-10-12 02:32:00,59.2,30.1,29.65,North,0,0.0,0.0,33,0.00,CLR,,0.00,WeatherDisplay:10.37,2013-10-12 06:32:00,
2013-10-12 02:37:00,59.2,30.8,29.62,North,0,0.0,0.0,34,0.00,CLR,,0.00,WeatherDisplay:10.37,2013-10-12 06:37:00,
2013-10-12 02:42:00,59.2,30.8,29.62,North,0,0.0,0.0,34,0.00,CLR,,0.00,WeatherDisplay:10.37,2013-10-12 06:42:00,
2013-10-12 02:47:00,59.2,30.8,29.62,North,0,0.0,0.0,34,0.00,CLR,,0.00,WeatherDisplay:10.37,2013-10-12 06:47:00,
2013-10-12 02:52:00,59.2,30.8,29.62,North,0,0.0,0.0,34,0.00,CLR,,0.00,WeatherDisplay:10.37,2013-10-12 06:52:00,
2013-10-12 02:57:00,59.0,30.6,29.62,North,0,0.0,0.0,34,0.00,CLR,,0.00,WeatherDisplay:10.37,2013-10-12 06:57:00,
2013-10-12 03:02:00,59.0,30.6,29.62,North,0,0.0,0.0,34,0.00,CLR,,0.00,WeatherDisplay:10.37,2013-10-12 07:02:00,
2013-10-12 03:07:00,58.8,31.2,29.62,North,0,0.0,0.0,35,0.00,CLR,,0.00,WeatherDisplay:10.37,2013-10-12 07:07:00,
2013-10-12 03:12:00,58.8,31.2,29.62,North,0,0.0,0.0,35,0.00,CLR,,0.00,WeatherDisplay:10.37,2013-10-12 07:12:00,
2013-10-12 03:17:00,58.6,31.0,29.62,North,0,0.0,0.0,35,0.00,CLR,,0.00,WeatherDisplay:10.37,2013-10-12 07:17:00,
2013-10-12 03:22:00,58.5,30.9,29.62,North,0,0.0,0.0,35,0.00,CLR,,0.00,WeatherDisplay:10.37,2013-10-12 07:22:00,
2013-10-12 03:27:00,58.3,30.7,29.62,North,0,0.0,0.0,35,0.00,CLR,,0.00,WeatherDisplay:10.37,2013-10-12 07:27:00,
2013-10-12 03:32:00,58.1,30.6,29.62,North,0,0.0,0.0,35,0.00,CLR,,0.00,WeatherDisplay:10.37,2013-10-12 07:32:00,
2013-10-12 03:37:00,57.9,30.4,29.65,North,0,0.0,0.0,35,0.00,CLR,,0.00,WeatherDisplay:10.37,2013-10-12 07:37:00,
2013-10-12 03:42:00,57.7,30.9,29.65,North,0,0.0,0.0,36,0.00,CLR,,0.00,WeatherDisplay:10.37,2013-10-12 07:42:00,
2013-10-12 03:47:00,57.6,30.8,29.65,North,0,0.0,0.0,36,0.00,CLR,,0.00,WeatherDisplay:10.37,2013-10-12 07:47:00,
2013-10-12 03:52:00,57.4,30.6,29.65,North,0,0.0,0.0,36,0.00,CLR,,0.00,WeatherDisplay:10.37,2013-10-12 07:52:00,
2013-10-12 03:57:00,57.2,30.5,29.65,North,0,0.0,0.0,36,0.00,CLR,,0.00,WeatherDisplay:10.37,2013-10-12 07:57:00,
2013-10-12 04:02:00,56.8,30.1,29.65,North,0,0.0,0.0,36,0.00,CLR,,0.00,WeatherDisplay:10.37,2013-10-12 08:02:00,
2013-10-12 04:07:00,56.7,30.0,29.65,North,0,0.0,0.0,36,0.00,CLR,,0.00,WeatherDisplay:10.37,2013-10-12 08:07:00,
2013-10-12 04:12:00,56.3,30.3,29.65,North,0,0.0,0.0,37,0.00,CLR,,0.00,WeatherDisplay:10.37,2013-10-12 08:12:00,
2013-10-12 04:17:00,56.1,30.2,29.65,North,0,0.0,0.0,37,0.00,CLR,,0.00,WeatherDisplay:10.37,2013-10-12 08:17:00,
2013-10-12 04:22:00,56.1,30.8,29.65,North,0,0.0,0.0,38,0.00,CLR,,0.00,WeatherDisplay:10.37,2013-10-12 08:22:00,
2013-10-12 04:27:00,55.9,30.0,29.65,North,0,0.0,0.0,37,0.00,CLR,,0.00,WeatherDisplay:10.37,2013-10-12 08:27:00,
2013-10-12 04:32:00,55.6,30.4,29.65,North,0,0.0,0.0,38,0.00,CLR,,0.00,WeatherDisplay:10.37,2013-10-12 08:32:00,
2013-10-12 04:37:00,55.8,31.2,29.65,North,0,0.0,0.0,39,0.00,CLR,,0.00,WeatherDisplay:10.37,2013-10-12 08:37:00,
2013-10-12 04:42:00,55.8,31.2,29.65,North,0,0.0,0.0,39,0.00,CLR,,0.00,WeatherDisplay:10.37,2013-10-12 08:42:00,
2013-10-12 04:47:00,55.8,31.2,29.65,North,0,0.0,0.0,39,0.00,CLR,,0.00,WeatherDisplay:10.37,2013-10-12 08:47:00,
2013-10-12 04:52:00,55.6,31.0,29.65,North,0,0.0,0.0,39,0.00,CLR,,0.00,WeatherDisplay:10.37,2013-10-12 08:52:00,
2013-10-12 04:57:00,55.6,31.0,29.65,North,0,0.0,0.0,39,0.00,CLR,,0.00,WeatherDisplay:10.37,2013-10-12 08:57:00,
2013-10-12 05:02:00,55.8,31.8,29.65,North,0,0.0,0.0,40,0.00,CLR,,0.00,WeatherDisplay:10.37,2013-10-12 09:02:00,
2013-10-12 05:07:00,55.8,31.8,29.68,North,0,0.0,0.0,40,0.00,CLR,,0.00,WeatherDisplay:10.37,2013-10-12 09:07:00,
2013-10-12 05:12:00,55.8,32.4,29.68,North,0,0.0,0.0,41,0.00,CLR,,0.00,WeatherDisplay:10.37,2013-10-12 09:12:00,
2013-10-12 05:17:00,55.6,31.6,29.68,North,0,0.0,0.0,40,0.00,CLR,,0.00,WeatherDisplay:10.37,2013-10-12 09:17:00,
2013-10-12 05:22:00,55.8,32.4,29.68,North,0,0.0,0.0,41,0.00,CLR,,0.00,WeatherDisplay:10.37,2013-10-12 09:22:00,
2013-10-12 05:27:00,55.8,33.0,29.68,North,0,0.0,0.0,42,0.00,CLR,,0.00,WeatherDisplay:10.37,2013-10-12 09:27:00,
2013-10-12 05:32:00,55.9,33.7,29.68,North,0,0.0,0.0,43,0.00,CLR,,0.00,WeatherDisplay:10.37,2013-10-12 09:32:00,
2013-10-12 05:37:00,56.1,34.5,29.68,North,0,0.0,0.0,44,0.00,CLR,,0.00,WeatherDisplay:10.37,2013-10-12 09:37:00,
2013-10-12 05:42:00,56.3,34.1,29.68,North,0,0.0,0.0,43,0.00,CLR,,0.00,WeatherDisplay:10.37,2013-10-12 09:42:00,
2013-10-12 05:47:00,56.3,34.6,29.68,North,0,0.0,0.0,44,0.00,CLR,,0.00,WeatherDisplay:10.37,2013-10-12 09:47:00,
2013-10-12 05:52:00,56.3,35.2,29.68,South,180,0.0,0.0,45,0.00,CLR,,0.00,WeatherDisplay:10.37,2013-10-12 09:52:00,
2013-10-12 05:57:00,56.3,35.2,29.68,SSE,158,0.0,0.0,45,0.00,CLR,,0.00,WeatherDisplay:10.37,2013-10-12 09:57:00,
2013-10-12 06:02:00,56.5,35.4,29.68,SSE,158,0.0,0.0,45,0.00,CLR,,0.00,WeatherDisplay:10.37,2013-10-12 10:02:00,
2013-10-12 06:07:00,56.5,35.4,29.68,SSE,158,0.0,0.0,45,0.00,CLR,,0.00,WeatherDisplay:10.37,2013-10-12 10:07:00,
2013-10-12 06:12:00,56.7,35.0,29.68,SSE,158,0.0,0.0,44,0.00,CLR,,0.00,WeatherDisplay:10.37,2013-10-12 10:12:00,
2013-10-12 06:17:00,56.7,35.0,29.68,SSE,158,0.0,0.0,44,0.00,CLR,,0.00,WeatherDisplay:10.37,2013-10-12 10:17:00,
2013-10-12 06:22:00,56.7,35.0,29.68,SSE,158,0.0,0.0,44,0.00,CLR,,0.00,WeatherDisplay:10.37,2013-10-12 10:22:00,
2013-10-12 06:27:00,56.7,35.0,29.68,SSE,158,0.0,0.0,44,0.00,CLR,,0.00,WeatherDisplay:10.37,2013-10-12 10:27:00,
2013-10-12 06:32:00,56.7,34.4,29.68,SSE,158,0.0,0.0,43,0.00,CLR,,0.00,WeatherDisplay:10.37,2013-10-12 10:32:00,
2013-10-12 06:37:00,56.7,34.4,29.68,North,0,0.0,0.0,43,0.00,CLR,,0.00,WeatherDisplay:10.37,2013-10-12 10:37:00,
2013-10-12 06:42:00,56.7,34.4,29.68,North,0,0.0,0.0,43,0.00,CLR,,0.00,WeatherDisplay:10.37,2013-10-12 10:42:00,
2013-10-12 06:47:00,56.7,34.4,29.68,North,0,0.0,0.0,43,0.00,CLR,,0.00,WeatherDisplay:10.37,2013-10-12 10:47:00,
2013-10-12 06:52:00,56.7,34.4,29.68,North,0,0.0,0.0,43,0.00,CLR,,0.00,WeatherDisplay:10.37,2013-10-12 10:52:00,
2013-10-12 06:57:00,56.5,33.6,29.68,North,0,0.0,0.0,42,0.00,CLR,,0.00,WeatherDisplay:10.37,2013-10-12 10:57:00,
2013-10-12 07:02:00,56.3,33.5,29.68,North,0,0.0,0.0,42,0.00,CLR,,0.00,WeatherDisplay:10.37,2013-10-12 11:02:00,
2013-10-12 07:07:00,56.1,33.3,29.68,North,0,0.0,0.0,42,0.00,CLR,,0.00,WeatherDisplay:10.37,2013-10-12 11:07:00,
2013-10-12 07:12:00,56.1,33.3,29.68,North,0,0.0,0.0,42,0.00,CLR,,0.00,WeatherDisplay:10.37,2013-10-12 11:12:00,
2013-10-12 07:17:00,55.9,32.6,29.68,North,0,0.0,0.0,41,0.00,CLR,,0.00,WeatherDisplay:10.37,2013-10-12 11:17:00,
2013-10-12 07:22:00,55.8,32.4,29.68,North,0,0.0,0.0,41,0.00,CLR,,0.00,WeatherDisplay:10.37,2013-10-12 11:22:00,
2013-10-12 07:27:00,55.6,32.2,29.68,North,0,0.0,0.0,41,0.00,CLR,,0.00,WeatherDisplay:10.37,2013-10-12 11:27:00,
2013-10-12 07:32:00,55.8,32.4,29.68,North,0,0.0,0.0,41,0.00,CLR,,0.00,WeatherDisplay:10.37,2013-10-12 11:32:00,
2013-10-12 07:37:00,55.4,32.1,29.68,North,0,0.0,0.0,41,0.00,CLR,,0.00,WeatherDisplay:10.37,2013-10-12 11:37:00,
2013-10-12 07:42:00,55.2,31.9,29.68,North,0,0.0,0.0,41,0.00,CLR,,0.00,WeatherDisplay:10.37,2013-10-12 11:42:00,
2013-10-12 07:47:00,55.0,32.3,29.68,North,0,0.0,0.0,42,0.00,CLR,,0.00,WeatherDisplay:10.37,2013-10-12 11:47:00,
2013-10-12 07:52:00,55.0,32.3,29.68,North,0,0.0,0.0,42,0.00,CLR,,0.00,WeatherDisplay:10.37,2013-10-12 11:52:00,
2013-10-12 07:57:00,55.0,32.3,29.68,North,0,0.0,0.0,42,0.00,CLR,,0.00,WeatherDisplay:10.37,2013-10-12 11:57:00,
2013-10-12 08:02:00,55.0,32.9,29.68,North,0,0.0,0.0,43,0.00,CLR,,0.00,WeatherDisplay:10.37,2013-10-12 12:02:00,
2013-10-12 08:07:00,54.9,32.2,29.68,North,0,0.0,0.0,42,0.00,CLR,,0.00,WeatherDisplay:10.37,2013-10-12 12:07:00,
2013-10-12 08:12:00,54.9,32.8,29.68,North,0,0.0,0.0,43,0.00,CLR,,0.00,WeatherDisplay:10.37,2013-10-12 12:12:00,
2013-10-12 08:17:00,54.9,33.3,29.68,North,0,0.0,0.0,44,0.00,CLR,,0.00,WeatherDisplay:10.37,2013-10-12 12:17:00,
2013-10-12 08:22:00,54.9,33.3,29.71,North,0,0.0,0.0,44,0.00,CLR,,0.00,WeatherDisplay:10.37,2013-10-12 12:22:00,
2013-10-12 08:27:00,54.9,33.3,29.71,North,0,0.0,0.0,44,0.00,CLR,,0.00,WeatherDisplay:10.37,2013-10-12 12:27:00,
2013-10-12 08:32:00,55.2,33.7,29.71,North,0,0.0,0.0,44,0.00,CLR,,0.00,WeatherDisplay:10.37,2013-10-12 12:32:00,
2013-10-12 08:37:00,55.6,34.0,29.71,North,0,0.0,0.0,44,0.00,CLR,,0.00,WeatherDisplay:10.37,2013-10-12 12:37:00,
2013-10-12 08:42:00,56.1,35.1,29.71,North,0,0.0,0.0,45,0.00,CLR,,0.00,WeatherDisplay:10.37,2013-10-12 12:42:00,
2013-10-12 08:47:00,56.8,35.7,29.71,North,0,0.0,0.0,45,0.00,CLR,,0.00,WeatherDisplay:10.37,2013-10-12 12:47:00,
2013-10-12 08:52:00,57.6,35.8,29.71,North,0,0.0,0.0,44,0.00,CLR,,0.00,WeatherDisplay:10.37,2013-10-12 12:52:00,
2013-10-12 08:57:00,58.1,35.7,29.71,North,0,0.0,0.0,43,0.00,CLR,,0.00,WeatherDisplay:10.37,2013-10-12 12:57:00,
2013-10-12 09:02:00,58.8,34.5,29.71,NNW,338,0.0,0.0,40,0.00,CLR,,0.00,WeatherDisplay:10.37,2013-10-12 13:02:00,
2013-10-12 09:07:00,59.4,33.7,29.71,NNW,338,0.0,0.0,38,0.00,CLR,,0.00,WeatherDisplay:10.37,2013-10-12 13:07:00,
2013-10-12 09:12:00,59.4,33.1,29.71,SSW,202,1.1,0.0,37,0.00,CLR,,0.00,WeatherDisplay:10.37,2013-10-12 13:12:00,
2013-10-12 09:17:00,60.3,33.9,29.71,North,0,1.1,0.0,37,0.00,CLR,,0.00,WeatherDisplay:10.37,2013-10-12 13:17:00,
2013-10-12 09:22:00,60.6,32.8,29.71,North,0,1.1,0.0,35,0.00,CLR,,0.00,WeatherDisplay:10.37,2013-10-12 13:22:00,
2013-10-12 09:27:00,61.3,32.7,29.71,North,0,0.0,0.0,34,0.00,CLR,,0.00,WeatherDisplay:10.37,2013-10-12 13:27:00,
2013-10-12 09:32:00,62.4,29.7,29.71,North,0,2.3,2.3,29,0.00,CLR,,0.00,WeatherDisplay:10.37,2013-10-12 13:32:00,
2013-10-12 09:37:00,62.6,27.2,29.71,West,270,1.1,1.1,26,0.00,CLR,,0.00,WeatherDisplay:10.37,2013-10-12 13:37:00,
2013-10-12 09:42:00,63.1,16.2,29.71,North,0,4.6,4.6,16,0.00,CLR,,0.00,WeatherDisplay:10.37,2013-10-12 13:42:00,
2013-10-12 09:47:00,63.9,12.0,29.71,NNE,22,4.6,4.6,13,0.00,CLR,,0.00,WeatherDisplay:10.37,2013-10-12 13:47:00,
2013-10-12 09:52:00,64.2,12.3,29.71,NNE,22,3.5,3.5,13,0.00,CLR,,0.00,WeatherDisplay:10.37,2013-10-12 13:52:00,
2013-10-12 09:57:00,64.2,12.3,29.71,NE,45,1.1,2.6,13,0.00,CLR,,0.00,WeatherDisplay:10.37,2013-10-12 13:57:00,
2013-10-12 10:02:00,64.8,12.7,29.71,NE,45,1.1,0.0,13,0.00,CLR,,0.00,WeatherDisplay:10.37,2013-10-12 14:02:00,
2013-10-12 10:07:00,64.9,12.8,29.71,North,0,2.4,2.6,13,0.00,CLR,,0.00,WeatherDisplay:10.37,2013-10-12 14:07:00,
2013-10-12 10:12:00,65.1,13.0,29.71,ENE,68,2.3,2.3,13,0.00,CLR,,0.00,WeatherDisplay:10.37,2013-10-12 14:12:00,
2013-10-12 10:17:00,65.7,13.4,29.71,NE,45,2.3,3.1,13,0.00,CLR,,0.00,WeatherDisplay:10.37,2013-10-12 14:17:00,
2013-10-12 10:22:00,65.5,13.3,29.71,NE,45,5.4,5.4,13,0.00,CLR,,0.00,WeatherDisplay:10.37,2013-10-12 14:22:00,
2013-10-12 10:27:00,65.5,13.3,29.71,ENE,68,4.6,4.6,13,0.00,CLR,,0.00,WeatherDisplay:10.37,2013-10-12 14:27:00,
2013-10-12 10:32:00,65.7,13.4,29.71,NNE,22,2.6,2.6,13,0.00,CLR,,0.00,WeatherDisplay:10.37,2013-10-12 14:32:00,
2013-10-12 10:37:00,65.8,13.6,29.71,NNE,22,3.5,3.5,13,0.00,CLR,,0.00,WeatherDisplay:10.37,2013-10-12 14:37:00,
2013-10-12 10:42:00,65.8,13.6,29.71,ENE,68,2.6,2.6,13,0.00,CLR,,0.00,WeatherDisplay:10.37,2013-10-12 14:42:00,
2013-10-12 10:47:00,65.8,13.6,29.71,NE,45,4.6,4.6,13,0.00,CLR,,0.00,WeatherDisplay:10.37,2013-10-12 14:47:00,
2013-10-12 10:52:00,65.8,13.6,29.74,NNE,22,4.6,4.6,13,0.00,CLR,,0.00,WeatherDisplay:10.37,2013-10-12 14:52:00,
2013-10-12 10:57:00,66.0,13.7,29.74,NE,45,3.5,3.5,13,0.00,CLR,,0.00,WeatherDisplay:10.37,2013-10-12 14:57:00,
2013-10-12 11:02:00,66.0,13.7,29.74,ENE,68,2.3,2.3,13,0.00,CLR,,0.00,WeatherDisplay:10.37,2013-10-12 15:02:00,
2013-10-12 11:07:00,66.2,12.0,29.74,North,0,3.5,3.5,12,0.00,CLR,,0.00,WeatherDisplay:10.37,2013-10-12 15:07:00,
2013-10-12 11:12:00,66.7,12.4,29.74,NE,45,1.1,1.1,12,0.00,CLR,,0.00,WeatherDisplay:10.37,2013-10-12 15:12:00,
2013-10-12 11:17:00,66.9,12.6,29.74,NE,45,2.3,2.3,12,0.00,CLR,,0.00,WeatherDisplay:10.37,2013-10-12 15:17:00,
2013-10-12 11:22:00,67.3,12.9,29.74,NE,45,4.6,4.6,12,0.00,CLR,,0.00,WeatherDisplay:10.37,2013-10-12 15:22:00,
2013-10-12 11:27:00,67.3,12.9,29.74,ENE,68,3.5,3.5,12,0.00,CLR,,0.00,WeatherDisplay:10.37,2013-10-12 15:27:00,
2013-10-12 11:32:00,67.5,13.0,29.74,ENE,68,3.5,3.5,12,0.00,CLR,,0.00,WeatherDisplay:10.37,2013-10-12 15:32:00,
2013-10-12 11:37:00,67.6,13.1,29.74,NNE,22,2.6,2.6,12,0.00,CLR,,0.00,WeatherDisplay:10.37,2013-10-12 15:37:00,
2013-10-12 11:42:00,68.0,13.4,29.74,NE,45,2.3,2.9,12,0.00,CLR,,0.00,WeatherDisplay:10.37,2013-10-12 15:42:00,
2013-10-12 11:47:00,68.0,13.4,29.74,SSE,158,2.4,2.4,12,0.00,CLR,,0.00,WeatherDisplay:10.37,2013-10-12 15:47:00,
2013-10-12 11:52:00,68.2,13.6,29.74,SE,135,2.9,2.9,12,0.00,CLR,,0.00,WeatherDisplay:10.37,2013-10-12 15:52:00,
2013-10-12 11:57:00,68.2,13.6,29.74,NE,45,2.3,3.1,12,0.00,CLR,,0.00,WeatherDisplay:10.37,2013-10-12 15:57:00,
2013-10-12 12:02:00,68.5,13.9,29.74,ENE,68,4.6,4.6,12,0.00,CLR,,0.00,WeatherDisplay:10.37,2013-10-12 16:02:00,
2013-10-12 12:07:00,68.7,14.0,29.74,SE,135,4.3,4.3,12,0.00,CLR,,0.00,WeatherDisplay:10.37,2013-10-12 16:07:00,
2013-10-12 12:12:00,68.7,14.0,29.74,ESE,112,3.3,3.3,12,0.00,CLR,,0.00,WeatherDisplay:10.37,2013-10-12 16:12:00,
2013-10-12 12:17:00,69.4,14.6,29.74,NE,45,2.9,2.9,12,0.00,CLR,,0.00,WeatherDisplay:10.37,2013-10-12 16:17:00,
2013-10-12 12:22:00,69.8,14.8,29.74,NE,45,3.5,3.5,12,0.00,CLR,,0.00,WeatherDisplay:10.37,2013-10-12 16:22:00,
2013-10-12 12:27:00,70.2,15.1,29.74,SSE,158,2.3,2.3,12,0.00,CLR,,0.00,WeatherDisplay:10.37,2013-10-12 16:27:00,
2013-10-12 12:32:00,70.5,15.4,29.74,SE,135,2.3,0.0,12,0.00,CLR,,0.00,WeatherDisplay:10.37,2013-10-12 16:32:00,
2013-10-12 12:37:00,70.9,15.7,29.74,NNE,22,5.8,5.8,12,0.00,CLR,,0.00,WeatherDisplay:10.37,2013-10-12 16:37:00,
2013-10-12 12:42:00,70.7,15.5,29.74,SSE,158,4.6,4.6,12,0.00,CLR,,0.00,WeatherDisplay:10.37,2013-10-12 16:42:00,
2013-10-12 12:47:00,71.2,16.0,29.74,SE,135,4.6,4.6,12,0.00,CLR,,0.00,WeatherDisplay:10.37,2013-10-12 16:47:00,
2013-10-12 12:52:00,72.1,14.7,29.71,North,0,3.5,3.5,11,0.00,CLR,,0.00,WeatherDisplay:10.37,2013-10-12 16:52:00,
2013-10-12 12:57:00,72.9,15.2,29.71,ENE,68,3.6,3.6,11,0.00,CLR,,0.00,WeatherDisplay:10.37,2013-10-12 16:57:00,
2013-10-12 13:02:00,73.6,15.8,29.71,SSE,158,2.3,2.9,11,0.00,CLR,,0.00,WeatherDisplay:10.37,2013-10-12 17:02:00,
2013-10-12 13:07:00,73.9,16.1,29.71,NE,45,3.5,3.5,11,0.00,CLR,,0.00,WeatherDisplay:10.37,2013-10-12 17:07:00,
2013-10-12 13:12:00,74.8,16.8,29.71,SE,135,3.5,3.5,11,0.00,CLR,,0.00,WeatherDisplay:10.37,2013-10-12 17:12:00,
2013-10-12 13:17:00,74.3,16.3,29.71,NE,45,3.8,3.8,11,0.00,CLR,,0.00,WeatherDisplay:10.37,2013-10-12 17:17:00,
2013-10-12 13:22:00,73.9,16.1,29.71,SSE,158,3.5,3.5,11,0.00,CLR,,0.00,WeatherDisplay:10.37,2013-10-12 17:22:00,
2013-10-12 13:27:00,74.3,16.3,29.71,SE,135,4.6,4.6,11,0.00,CLR,,0.00,WeatherDisplay:10.37,2013-10-12 17:27:00,
2013-10-12 13:32:00,74.3,16.3,29.71,SE,135,5.8,5.8,11,0.00,CLR,,0.00,WeatherDisplay:10.37,2013-10-12 17:32:00,
2013-10-12 13:37:00,75.7,15.2,29.71,SE,135,2.3,2.3,10,0.00,CLR,,0.00,WeatherDisplay:10.37,2013-10-12 17:37:00,
2013-10-12 13:42:00,76.3,15.7,29.71,SE,135,3.5,3.5,10,0.00,CLR,,0.00,WeatherDisplay:10.37,2013-10-12 17:42:00,
2013-10-12 13:47:00,76.8,16.1,29.71,SE,135,3.5,3.5,10,0.00,CLR,,0.00,WeatherDisplay:10.37,2013-10-12 17:47:00,
2013-10-12 13:52:00,77.4,16.5,29.71,NNE,22,3.1,3.1,10,0.00,CLR,,0.00,WeatherDisplay:10.37,2013-10-12 17:52:00,
2013-10-12 13:57:00,78.8,17.6,29.71,NE,45,4.6,4.6,10,0.00,CLR,,0.00,WeatherDisplay:10.37,2013-10-12 17:57:00,
2013-10-12 14:02:00,77.9,16.9,29.71,SSE,158,3.1,3.1,10,0.00,CLR,,0.00,WeatherDisplay:10.37,2013-10-12 18:02:00,
2013-10-12 14:07:00,80.1,18.5,29.71,ESE,112,2.3,2.3,10,0.00,CLR,,0.00,WeatherDisplay:10.37,2013-10-12 18:07:00,
2013-10-12 14:12:00,79.2,17.9,29.71,NNE,22,2.3,2.3,10,0.00,CLR,,0.00,WeatherDisplay:10.37,2013-10-12 18:12:00,
2013-10-12 14:17:00,78.8,21.9,29.71,South,180,3.5,3.5,12,0.00,CLR,,0.00,WeatherDisplay:10.37,2013-10-12 18:17:00,
2013-10-12 14:22:00,79.2,22.1,29.68,ESE,112,3.5,3.5,12,0.00,CLR,,0.00,WeatherDisplay:10.37,2013-10-12 18:22:00,
2013-10-12 14:27:00,79.9,22.7,29.68,NNE,22,2.3,2.3,12,0.00,CLR,,0.00,WeatherDisplay:10.37,2013-10-12 18:27:00,
2013-10-12 14:32:00,81.3,17.0,29.68,NNW,338,5.9,5.9,9,0.00,CLR,,0.00,WeatherDisplay:10.37,2013-10-12 18:32:00,
2013-10-12 14:37:00,80.4,23.1,29.68,SE,135,3.1,3.1,12,0.00,CLR,,0.00,WeatherDisplay:10.37,2013-10-12 18:37:00,
2013-10-12 14:42:00,80.1,22.8,29.68,SE,135,8.1,8.1,12,0.00,CLR,,0.00,WeatherDisplay:10.37,2013-10-12 18:42:00,
2013-10-12 14:47:00,79.9,22.7,29.68,SE,135,5.8,5.8,12,0.00,CLR,,0.00,WeatherDisplay:10.37,2013-10-12 18:47:00,
2013-10-12 14:52:00,79.3,22.3,29.68,ESE,112,3.8,3.8,12,0.00,CLR,,0.00,WeatherDisplay:10.37,2013-10-12 18:52:00,
2013-10-12 14:57:00,80.1,22.8,29.68,SE,135,5.8,5.8,12,0.00,CLR,,0.00,WeatherDisplay:10.37,2013-10-12 18:57:00,
2013-10-12 15:02:00,79.9,22.7,29.68,NE,45,3.5,3.5,12,0.00,CLR,,0.00,WeatherDisplay:10.37,2013-10-12 19:02:00,
2013-10-12 15:07:00,79.9,22.7,29.68,NE,45,3.5,3.8,12,0.00,CLR,,0.00,WeatherDisplay:10.37,2013-10-12 19:07:00,
2013-10-12 15:12:00,79.5,22.4,29.68,ESE,112,6.0,6.0,12,0.00,CLR,,0.00,WeatherDisplay:10.37,2013-10-12 19:12:00,
2013-10-12 15:17:00,79.7,22.6,29.68,NE,45,5.8,5.8,12,0.00,CLR,,0.00,WeatherDisplay:10.37,2013-10-12 19:17:00,
2013-10-12 15:22:00,78.8,21.9,29.68,ESE,112,4.6,4.6,12,0.00,CLR,,0.00,WeatherDisplay:10.37,2013-10-12 19:22:00,
2013-10-12 15:27:00,78.6,23.6,29.68,ESE,112,4.6,4.6,13,0.00,CLR,,0.00,WeatherDisplay:10.37,2013-10-12 19:27:00,
2013-10-12 15:32:00,78.3,17.2,29.68,NNE,22,1.4,2.9,10,0.00,CLR,,0.00,WeatherDisplay:10.37,2013-10-12 19:32:00,
2013-10-12 15:37:00,77.9,16.9,29.68,NE,45,2.6,4.0,10,0.00,CLR,,0.00,WeatherDisplay:10.37,2013-10-12 19:37:00,
2013-10-12 15:42:00,77.5,16.6,29.68,SE,135,7.1,7.1,10,0.00,CLR,,0.00,WeatherDisplay:10.37,2013-10-12 19:42:00,
2013-10-12 15:47:00,77.0,16.2,29.68,ENE,68,3.5,3.5,10,0.00,CLR,,0.00,WeatherDisplay:10.37,2013-10-12 19:47:00,
2013-10-12 15:52:00,77.4,16.5,29.68,ESE,112,4.6,4.6,10,0.00,CLR,,0.00,WeatherDisplay:10.37,2013-10-12 19:52:00,
2013-10-12 15:57:00,77.5,22.8,29.68,SSE,158,3.5,3.6,13,0.00,CLR,,0.00,WeatherDisplay:10.37,2013-10-12 19:57:00,
2013-10-12 16:02:00,77.5,22.8,29.68,ESE,112,3.5,3.5,13,0.00,CLR,,0.00,WeatherDisplay:10.37,2013-10-12 20:02:00,
2013-10-12 16:07:00,77.9,23.1,29.68,SE,135,3.5,3.5,13,0.00,CLR,,0.00,WeatherDisplay:10.37,2013-10-12 20:07:00,
2013-10-12 16:12:00,77.2,22.5,29.68,SSE,158,3.8,3.8,13,0.00,CLR,,0.00,WeatherDisplay:10.37,2013-10-12 20:12:00,
2013-10-12 16:17:00,76.5,21.9,29.68,SSE,158,3.8,3.8,13,0.00,CLR,,0.00,WeatherDisplay:10.37,2013-10-12 20:17:00,
2013-10-12 16:22:00,76.5,15.8,29.68,SSE,158,6.9,6.9,10,0.00,CLR,,0.00,WeatherDisplay:10.37,2013-10-12 20:22:00,
2013-10-12 16:27:00,76.5,15.8,29.68,SSE,158,6.9,6.9,10,0.00,CLR,,0.00,WeatherDisplay:10.37,2013-10-12 20:27:00,
2013-10-12 16:32:00,76.5,15.8,29.68,SSE,158,6.9,6.9,10,0.00,CLR,,0.00,WeatherDisplay:10.37,2013-10-12 20:32:00,
2013-10-12 16:37:00,76.5,15.8,29.68,SSW,202,1.1,0.0,10,0.00,CLR,,0.00,WeatherDisplay:10.37,2013-10-12 20:37:00,
2013-10-12 16:42:00,74.8,16.8,29.68,ENE,68,1.6,2.4,11,0.00,CLR,,0.00,WeatherDisplay:10.37,2013-10-12 20:42:00,
2013-10-12 16:47:00,74.5,16.5,29.68,NE,45,2.4,2.4,11,0.00,CLR,,0.00,WeatherDisplay:10.37,2013-10-12 20:47:00,
2013-10-12 16:52:00,74.5,16.5,29.68,ENE,68,3.5,3.5,11,0.00,CLR,,0.00,WeatherDisplay:10.37,2013-10-12 20:52:00,
2013-10-12 16:57:00,74.3,16.3,29.68,ESE,112,3.5,3.5,11,0.00,CLR,,0.00,WeatherDisplay:10.37,2013-10-12 20:57:00,
2013-10-12 17:02:00,73.9,16.1,29.68,SE,135,4.6,4.6,11,0.00,CLR,,0.00,WeatherDisplay:10.37,2013-10-12 21:02:00,
2013-10-12 17:07:00,73.8,15.9,29.68,SE,135,3.1,3.1,11,0.00,CLR,,0.00,WeatherDisplay:10.37,2013-10-12 21:07:00,
2013-10-12 17:12:00,73.6,15.8,29.68,SE,135,2.3,2.3,11,0.00,CLR,,0.00,WeatherDisplay:10.37,2013-10-12 21:12:00,
2013-10-12 17:17:00,73.4,15.6,29.68,SSE,158,6.9,6.9,11,0.00,CLR,,0.00,WeatherDisplay:10.37,2013-10-12 21:17:00,
2013-10-12 17:22:00,73.0,15.4,29.68,SSE,158,6.9,6.9,11,0.00,CLR,,0.00,WeatherDisplay:10.37,2013-10-12 21:22:00,
2013-10-12 17:27:00,72.9,15.2,29.68,South,180,3.8,3.8,11,0.00,CLR,,0.00,WeatherDisplay:10.37,2013-10-12 21:27:00,
2013-10-12 17:32:00,72.7,15.1,29.68,SSW,202,4.6,4.6,11,0.00,CLR,,0.00,WeatherDisplay:10.37,2013-10-12 21:32:00,
2013-10-12 17:37:00,72.5,14.9,29.68,SSE,158,4.6,4.6,11,0.00,CLR,,0.00,WeatherDisplay:10.37,2013-10-12 21:37:00,
2013-10-12 17:42:00,72.3,14.8,29.68,SE,135,4.6,4.6,11,0.00,CLR,,0.00,WeatherDisplay:10.37,2013-10-12 21:42:00,
2013-10-12 17:47:00,72.0,14.5,29.68,SSE,158,3.5,3.6,11,0.00,CLR,,0.00,WeatherDisplay:10.37,2013-10-12 21:47:00,
2013-10-12 17:52:00,71.8,14.4,29.68,SE,135,4.6,4.6,11,0.00,CLR,,0.00,WeatherDisplay:10.37,2013-10-12 21:52:00,
2013-10-12 17:57:00,71.4,16.1,29.68,ESE,112,3.5,3.5,12,0.00,CLR,,0.00,WeatherDisplay:10.37,2013-10-12 21:57:00,
2013-10-12 18:02:00,71.2,16.0,29.68,SE,135,4.0,4.0,12,0.00,CLR,,0.00,WeatherDisplay:10.37,2013-10-12 22:02:00,
2013-10-12 18:07:00,71.2,16.0,29.71,SSE,158,3.5,3.8,12,0.00,CLR,,0.00,WeatherDisplay:10.37,2013-10-12 22:07:00,
2013-10-12 18:12:00,70.7,15.5,29.71,SE,135,3.5,3.5,12,0.00,CLR,,0.00,WeatherDisplay:10.37,2013-10-12 22:12:00,
2013-10-12 18:17:00,70.3,15.3,29.71,ESE,112,2.9,2.9,12,0.00,CLR,,0.00,WeatherDisplay:10.37,2013-10-12 22:17:00,
2013-10-12 18:22:00,69.4,14.6,29.68,ESE,112,0.0,0.0,12,0.00,CLR,,0.00,WeatherDisplay:10.37,2013-10-12 22:22:00,
2013-10-12 18:27:00,68.7,14.0,29.68,ESE,112,1.1,0.0,12,0.00,CLR,,0.00,WeatherDisplay:10.37,2013-10-12 22:27:00,
2013-10-12 18:32:00,68.2,13.6,29.68,ESE,112,2.3,2.3,12,0.00,CLR,,0.00,WeatherDisplay:10.37,2013-10-12 22:32:00,
2013-10-12 18:37:00,67.5,13.0,29.71,ESE,112,0.0,0.0,12,0.00,CLR,,0.00,WeatherDisplay:10.37,2013-10-12 22:37:00,
2013-10-12 18:42:00,66.6,12.3,29.71,ESE,112,0.0,0.0,12,0.00,CLR,,0.00,WeatherDisplay:10.37,2013-10-12 22:42:00,
2013-10-12 18:47:00,65.7,13.4,29.71,ESE,112,0.0,0.0,13,0.00,CLR,,0.00,WeatherDisplay:10.37,2013-10-12 22:47:00,
2013-10-12 18:52:00,64.6,12.6,29.71,ESE,112,0.0,0.0,13,0.00,CLR,,0.00,WeatherDisplay:10.37,2013-10-12 22:52:00,
2013-10-12 18:57:00,63.7,11.8,29.71,ESE,112,0.0,0.0,13,0.00,CLR,,0.00,WeatherDisplay:10.37,2013-10-12 22:57:00,
2013-10-12 19:02:00,63.1,11.4,29.71,ESE,112,0.0,0.0,13,0.00,CLR,,0.00,WeatherDisplay:10.37,2013-10-12 23:02:00,
2013-10-12 19:07:00,62.1,12.2,29.71,ESE,112,0.0,0.0,14,0.00,CLR,,0.00,WeatherDisplay:10.37,2013-10-12 23:07:00,
2013-10-12 19:12:00,61.5,11.8,29.71,ESE,112,0.0,0.0,14,0.00,CLR,,0.00,WeatherDisplay:10.37,2013-10-12 23:12:00,
2013-10-12 19:17:00,61.0,11.4,29.71,ESE,112,0.0,0.0,14,0.00,CLR,,0.00,WeatherDisplay:10.37,2013-10-12 23:17:00,
2013-10-12 19:22:00,60.4,10.9,29.74,ESE,112,0.0,0.0,14,0.00,CLR,,0.00,WeatherDisplay:10.37,2013-10-12 23:22:00,
2013-10-12 19:27:00,59.9,10.5,29.74,ESE,112,0.0,0.0,14,0.00,CLR,,0.00,WeatherDisplay:10.37,2013-10-12 23:27:00,
2013-10-12 19:32:00,59.5,10.2,29.74,ESE,112,0.0,0.0,14,0.00,CLR,,0.00,WeatherDisplay:10.37,2013-10-12 23:32:00,
2013-10-12 19:37:00,59.2,9.9,29.74,ESE,112,0.0,0.0,14,0.00,CLR,,0.00,WeatherDisplay:10.37,2013-10-12 23:37:00,
2013-10-12 19:42:00,58.8,9.6,29.74,ESE,112,0.0,0.0,14,0.00,CLR,,0.00,WeatherDisplay:10.37,2013-10-12 23:42:00,
2013-10-12 19:47:00,58.5,9.4,29.74,ESE,112,1.1,1.1,14,0.00,CLR,,0.00,WeatherDisplay:10.37,2013-10-12 23:47:00,
2013-10-12 19:52:00,58.8,9.6,29.74,ESE,112,2.3,2.3,14,0.00,CLR,,0.00,WeatherDisplay:10.37,2013-10-12 23:52:00,
2013-10-12 19:57:00,59.4,10.1,29.74,ESE,112,1.1,0.0,14,0.00,CLR,,0.00,WeatherDisplay:10.37,2013-10-12 23:57:00,
2013-10-12 20:02:00,59.5,10.2,29.74,ESE,112,1.1,0.0,14,0.00,CLR,,0.00,WeatherDisplay:10.37,2013-10-13 00:02:00,
2013-10-12 20:07:00,59.7,10.4,29.74,ESE,112,1.1,0.0,14,0.00,CLR,,0.00,WeatherDisplay:10.37,2013-10-13 00:07:00,
2013-10-12 20:12:00,59.7,10.4,29.74,ESE,112,0.0,0.0,14,0.00,CLR,,0.00,WeatherDisplay:10.37,2013-10-13 00:12:00,
2013-10-12 20:17:00,59.5,10.2,29.74,ESE,112,2.3,2.3,14,0.00,CLR,,0.00,WeatherDisplay:10.37,2013-10-13 00:17:00,
2013-10-12 20:22:00,59.7,10.4,29.74,East,90,2.3,2.3,14,0.00,CLR,,0.00,WeatherDisplay:10.37,2013-10-13 00:22:00,
2013-10-12 20:27:00,59.9,10.5,29.74,East,90,1.1,1.1,14,0.00,CLR,,0.00,WeatherDisplay:10.37,2013-10-13 00:27:00,
2013-10-12 20:32:00,59.9,10.5,29.74,East,90,0.0,0.0,14,0.00,CLR,,0.00,WeatherDisplay:10.37,2013-10-13 00:32:00,
2013-10-12 20:37:00,59.4,10.1,29.77,East,90,0.0,0.0,14,0.00,CLR,,0.00,WeatherDisplay:10.37,2013-10-13 00:37:00,
2013-10-12 20:42:00,58.8,9.6,29.77,East,90,0.0,0.0,14,0.00,CLR,,0.00,WeatherDisplay:10.37,2013-10-13 00:42:00,
2013-10-12 20:47:00,58.5,9.4,29.77,East,90,0.0,0.0,14,0.00,CLR,,0.00,WeatherDisplay:10.37,2013-10-13 00:47:00,
2013-10-12 20:52:00,58.3,9.2,29.77,East,90,0.0,0.0,14,0.00,CLR,,0.00,WeatherDisplay:10.37,2013-10-13 00:52:00,
2013-10-12 20:57:00,57.9,8.9,29.77,East,90,0.0,0.0,14,0.00,CLR,,0.00,WeatherDisplay:10.37,2013-10-13 00:57:00,
2013-10-12 21:02:00,57.6,8.6,29.77,East,90,0.0,0.0,14,0.00,CLR,,0.00,WeatherDisplay:10.37,2013-10-13 01:02:00,
2013-10-12 21:07:00,57.2,8.3,29.77,East,90,0.0,0.0,14,0.00,CLR,,0.00,WeatherDisplay:10.37,2013-10-13 01:07:00,
2013-10-12 21:12:00,56.8,9.6,29.77,East,90,0.0,0.0,15,0.00,CLR,,0.00,WeatherDisplay:10.37,2013-10-13 01:12:00,
2013-10-12 21:17:00,56.7,9.5,29.77,East,90,0.0,0.0,15,0.00,CLR,,0.00,WeatherDisplay:10.37,2013-10-13 01:17:00,
2013-10-12 21:22:00,56.5,9.3,29.77,East,90,0.0,0.0,15,0.00,CLR,,0.00,WeatherDisplay:10.37,2013-10-13 01:22:00,
2013-10-12 21:27:00,56.3,9.2,29.77,East,90,0.0,0.0,15,0.00,CLR,,0.00,WeatherDisplay:10.37,2013-10-13 01:27:00,
2013-10-12 21:32:00,55.9,11.7,29.77,East,90,0.0,0.0,17,0.00,CLR,,0.00,WeatherDisplay:10.37,2013-10-13 01:32:00,
2013-10-12 21:37:00,55.6,11.4,29.77,East,90,0.0,0.0,17,0.00,CLR,,0.00,WeatherDisplay:10.37,2013-10-13 01:37:00,
2013-10-12 21:42:00,55.0,12.2,29.77,East,90,0.0,0.0,18,0.00,CLR,,0.00,WeatherDisplay:10.37,2013-10-13 01:42:00,
2013-10-12 21:47:00,54.5,11.8,29.77,East,90,0.0,0.0,18,0.00,CLR,,0.00,WeatherDisplay:10.37,2013-10-13 01:47:00,
2013-10-12 21:52:00,54.3,11.6,29.77,East,90,0.0,0.0,18,0.00,CLR,,0.00,WeatherDisplay:10.37,2013-10-13 01:52:00,
2013-10-12 21:57:00,54.3,14.0,29.77,East,90,0.0,0.0,20,0.00,CLR,,0.00,WeatherDisplay:10.37,2013-10-13 01:57:00,
2013-10-12 22:02:00,54.1,13.9,29.77,East,90,0.0,0.0,20,0.00,CLR,,0.00,WeatherDisplay:10.37,2013-10-13 02:02:00,
2013-10-12 22:07:00,54.0,13.7,29.77,East,90,0.0,0.0,20,0.00,CLR,,0.00,WeatherDisplay:10.37,2013-10-13 02:07:00,
2013-10-12 22:12:00,53.8,16.8,29.77,East,90,1.4,0.0,23,0.00,CLR,,0.00,WeatherDisplay:10.37,2013-10-13 02:12:00,
2013-10-12 22:17:00,54.0,19.8,29.77,East,90,0.0,0.0,26,0.00,CLR,,0.00,WeatherDisplay:10.37,2013-10-13 02:17:00,
2013-10-12 22:22:00,54.0,19.8,29.77,East,90,0.0,0.0,26,0.00,CLR,,0.00,WeatherDisplay:10.37,2013-10-13 02:22:00,
2013-10-12 22:27:00,54.0,19.8,29.77,East,90,0.0,0.0,26,0.00,CLR,,0.00,WeatherDisplay:10.37,2013-10-13 02:27:00,
2013-10-12 22:32:00,54.0,19.8,29.77,East,90,1.1,1.1,26,0.00,CLR,,0.00,WeatherDisplay:10.37,2013-10-13 02:32:00,
2013-10-12 22:37:00,54.0,19.8,29.77,East,90,0.0,0.0,26,0.00,CLR,,0.00,WeatherDisplay:10.37,2013-10-13 02:37:00,
2013-10-12 22:42:00,54.1,20.0,29.77,East,90,0.0,0.0,26,0.00,CLR,,0.00,WeatherDisplay:10.37,2013-10-13 02:42:00,
2013-10-12 22:47:00,54.1,20.0,29.77,East,90,0.0,0.0,26,0.00,CLR,,0.00,WeatherDisplay:10.37,2013-10-13 02:47:00,
2013-10-12 22:52:00,54.3,20.1,29.77,East,90,0.0,0.0,26,0.00,CLR,,0.00,WeatherDisplay:10.37,2013-10-13 02:52:00,
2013-10-12 22:57:00,54.3,20.1,29.77,East,90,0.0,0.0,26,0.00,CLR,,0.00,WeatherDisplay:10.37,2013-10-13 02:57:00,
2013-10-12 23:02:00,54.5,20.3,29.77,East,90,0.0,0.0,26,0.00,CLR,,0.00,WeatherDisplay:10.37,2013-10-13 03:02:00,
2013-10-12 23:07:00,54.5,21.2,29.77,East,90,0.0,0.0,27,0.00,CLR,,0.00,WeatherDisplay:10.37,2013-10-13 03:07:00,
2013-10-12 23:12:00,54.7,22.2,29.77,East,90,0.0,0.0,28,0.00,CLR,,0.00,WeatherDisplay:10.37,2013-10-13 03:12:00,
2013-10-12 23:17:00,54.7,22.2,29.77,East,90,0.0,0.0,28,0.00,CLR,,0.00,WeatherDisplay:10.37,2013-10-13 03:17:00,
2013-10-12 23:22:00,54.7,22.2,29.77,East,90,0.0,0.0,28,0.00,CLR,,0.00,WeatherDisplay:10.37,2013-10-13 03:22:00,
2013-10-12 23:27:00,54.7,22.2,29.77,East,90,0.0,0.0,28,0.00,CLR,,0.00,WeatherDisplay:10.37,2013-10-13 03:27:00,
2013-10-12 23:32:00,54.7,22.2,29.77,East,90,0.0,0.0,28,0.00,CLR,,0.00,WeatherDisplay:10.37,2013-10-13 03:32:00,
2013-10-12 23:37:00,54.9,22.3,29.77,East,90,0.0,0.0,28,0.00,CLR,,0.00,WeatherDisplay:10.37,2013-10-13 03:37:00,
2013-10-12 23:42:00,55.0,22.5,29.77,East,90,0.0,0.0,28,0.00,CLR,,0.00,WeatherDisplay:10.37,2013-10-13 03:42:00,
2013-10-12 23:47:00,55.0,21.6,29.77,East,90,0.0,0.0,27,0.00,CLR,,0.00,WeatherDisplay:10.37,2013-10-13 03:47:00,
2013-10-12 23:52:00,55.0,22.5,29.77,East,90,0.0,0.0,28,0.00,CLR,,0.00,WeatherDisplay:10.37,2013-10-13 03:52:00,
2013-10-12 23:57:00,54.9,22.3,29.77,East,90,0.0,0.0,28,0.00,CLR,,0.00,WeatherDisplay:10.37,2013-10-13 03:57:00,